| time (UTC) | temp F | wind direction | speed knots | gust knots | rain 1hr in | rain 24hr in | rain mn in | humidity % | barometer mb |
| 20260505083025 | 50 | 0 | 3.5 | 7.8 | 0.03 | 0.19 | 0.19 | 96 | 1011.7 |
| 20260505082105 | 50 | 338 | 1.7 | 6.1 | 0.03 | 0.18 | 0.18 | 96 | 1011.5 |
| 20260505081025 | 50 | 0 | 0.9 | 3.5 | 0.02 | 0.17 | 0.17 | 96 | 1011.6 |
| 20260505080045 | 50 | 0 | 0.9 | 4.3 | 0.02 | 0.17 | 0.17 | 96 | 1011.5 |
| 20260505075025 | 50 | 45 | 1.7 | 7.0 | 0.03 | 0.17 | 0.17 | 96 | 1011.4 |
| 20260505074025 | 50 | 0.0 | 2.6 | 0.03 | 0.16 | 0.16 | 96 | 1011.4 | |
| 20260505073025 | 50 | 0 | 0.9 | 6.1 | 0.03 | 0.16 | 0.16 | 96 | 1011.4 |
| 20260505072025 | 50 | 68 | 1.7 | 5.2 | 0.02 | 0.15 | 0.15 | 96 | 1011.5 |
| 20260505071025 | 50 | 0 | 1.7 | 5.2 | 0.03 | 0.15 | 0.15 | 96 | 1011.6 |
| 20260505070025 | 50 | 0 | 1.7 | 4.3 | 0.02 | 0.14 | 0.14 | 96 | 1011.5 |
| 20260505065045 | 50 | 0 | 2.6 | 7.0 | 0.02 | 0.13 | 0.13 | 96 | 1011.5 |
| 20260505064205 | 50 | 23 | 1.7 | 7.8 | 0.02 | 0.13 | 0.13 | 96 | 1011.5 |
| 20260505063025 | 50 | 45 | 1.7 | 7.0 | 0.02 | 0.13 | 0.13 | 96 | 1011.5 |
| 20260505062045 | 50 | 45 | 1.7 | 7.8 | 0.03 | 0.13 | 0.13 | 96 | 1011.5 |
| 20260505061025 | 50 | 45 | 1.7 | 6.1 | 0.04 | 0.12 | 0.12 | 96 | 1011.5 |
| 20260505060025 | 50 | 45 | 1.7 | 4.3 | 0.06 | 0.12 | 0.12 | 95 | 1011.6 |
| 20260505055025 | 50 | 23 | 0.9 | 2.6 | 0.07 | 0.12 | 0.12 | 95 | 1011.7 |
| 20260505054025 | 50 | 23 | 1.7 | 7.0 | 0.07 | 0.11 | 0.11 | 95 | 1011.7 |
| 20260505053025 | 50 | 0 | 1.7 | 8.7 | 0.06 | 0.10 | 0.10 | 95 | 1011.7 |
| 20260505052045 | 51 | 0.0 | 0.0 | 0.07 | 0.09 | 0.09 | 95 | 1011.6 | |
| 20260505051025 | 51 | 0.0 | 0.0 | 0.07 | 0.08 | 0.08 | 95 | 1011.5 | |
| 20260505041024 | 51 | 0.0 | 0.0 | 0.01 | 0.01 | 0.01 | 93 | 1011.6 | |
| 20260505040025 | 51 | 0.0 | 0.0 | 0.01 | 0.01 | 0.01 | 93 | 1011.7 | |
| 20260505035045 | 51 | 0 | 0.9 | 4.3 | 0.01 | 0.01 | 0.01 | 92 | 1011.7 |
| 20260505034025 | 51 | 0 | 0.9 | 3.5 | 0.01 | 0.01 | 0.01 | 92 | 1011.8 |
| 20260505033105 | 51 | 0.0 | 1.7 | 0.00 | 0.00 | 0.00 | 91 | 1011.7 | |
| 20260505032025 | 51 | 0.0 | 2.6 | 0.00 | 0.00 | 0.00 | 90 | 1011.8 | |
| 20260505031024 | 51 | 0.0 | 0.9 | 0.00 | 0.00 | 0.00 | 90 | 1011.8 | |
| 20260505030025 | 51 | 0.0 | 3.5 | 0.00 | 0.00 | 0.00 | 90 | 1011.9 | |
| 20260505025025 | 51 | 0.0 | 1.7 | 0.00 | 0.00 | 0.00 | 90 | 1011.9 | |
| 20260505024024 | 51 | 0.0 | 0.0 | 0.00 | 0.00 | 0.00 | 90 | 1012.0 | |
| 20260505023025 | 51 | 0.0 | 2.6 | 0.00 | 0.00 | 0.00 | 89 | 1011.9 | |
| 20260505022105 | 51 | 0.0 | 1.7 | 0.00 | 0.00 | 0.00 | 89 | 1012.0 | |
| 20260505021024 | 51 | 0.0 | 2.6 | 0.00 | 0.00 | 0.00 | 89 | 1012.1 | |
| 20260505020025 | 51 | 0.0 | 0.9 | 0.00 | 0.00 | 0.00 | 89 | 1012.1 | |
| 20260505015025 | 51 | 0.0 | 2.6 | 0.00 | 0.00 | 0.00 | 89 | 1012.0 | |
| 20260505014025 | 51 | 0.0 | 0.0 | 0.00 | 0.00 | 0.00 | 90 | 1012.1 | |
| 20260505013024 | 51 | 0.0 | 0.9 | 0.00 | 0.00 | 0.00 | 90 | 1012.2 | |
| 20260505012025 | 51 | 0.0 | 1.7 | 0.00 | 0.00 | 0.00 | 90 | 1012.3 | |
| 20260505011105 | 51 | 0.0 | 2.6 | 0.00 | 0.00 | 0.00 | 91 | 1012.4 | |
| 20260505010025 | 52 | 0 | 0.9 | 2.6 | 0.00 | 0.00 | 0.00 | 92 | 1012.5 |
| 20260505005024 | 52 | 0.0 | 1.7 | 0.00 | 0.00 | 0.00 | 92 | 1012.6 | |
| 20260505004024 | 52 | 0.0 | 0.0 | 0.00 | 0.00 | 0.00 | 92 | 1012.7 | |
| 20260505003025 | 52 | 0.0 | 0.0 | 0.00 | 0.00 | 0.00 | 92 | 1012.6 | |
| 20260505002024 | 52 | 0.0 | 0.0 | 0.00 | 0.00 | 0.00 | 93 | 1012.7 | |
| 20260505001024 | 52 | 0.0 | 0.9 | 0.00 | 0.00 | 0.00 | 93 | 1012.7 | |
| 20260505000024 | 52 | 0.0 | 1.7 | 0.00 | 0.00 | 0.00 | 93 | 1012.7 | |
| 20260504235024 | 52 | 0.0 | 0.9 | 0.00 | 0.00 | 0.00 | 93 | 1012.7 | |
| 20260504234024 | 52 | 0.0 | 1.7 | 0.00 | 0.00 | 0.00 | 93 | 1012.8 | |
| 20260504233024 | 52 | 0.0 | 1.7 | 0.00 | 0.00 | 0.00 | 94 | 1012.9 | |
| 20260504232024 | 52 | 0.0 | 1.7 | 0.00 | 0.00 | 0.00 | 94 | 1012.8 | |
| 20260504231024 | 51 | 0.0 | 0.9 | 0.00 | 0.00 | 0.00 | 93 | 1012.9 | |
| 20260504230024 | 51 | 23 | 0.9 | 2.6 | 0.00 | 0.00 | 0.00 | 93 | 1013.0 |
| 20260504225024 | 51 | 0.0 | 1.7 | 0.00 | 0.00 | 0.00 | 93 | 1013.0 | |
| 20260504224024 | 51 | 0.0 | 1.7 | 0.00 | 0.00 | 0.00 | 93 | 1013.0 | |
| 20260504223024 | 51 | 0.0 | 2.6 | 0.00 | 0.00 | 0.00 | 93 | 1013.0 | |
| 20260504222044 | 51 | 0.0 | 1.7 | 0.00 | 0.00 | 0.00 | 93 | 1013.2 | |
| 20260504221024 | 51 | 0.0 | 1.7 | 0.00 | 0.00 | 0.00 | 92 | 1013.1 | |
| 20260504220024 | 51 | 0.0 | 1.7 | 0.00 | 0.00 | 0.00 | 92 | 1013.2 | |
| 20260504215024 | 51 | 0.0 | 1.7 | 0.00 | 0.00 | 0.00 | 92 | 1013.2 | |
| 20260504214024 | 51 | 0 | 0.9 | 2.6 | 0.00 | 0.00 | 0.00 | 92 | 1013.2 |
| 20260504213024 | 51 | 23 | 0.9 | 1.7 | 0.00 | 0.00 | 0.00 | 92 | 1013.2 |
| 20260504212024 | 51 | 0 | 1.7 | 3.5 | 0.00 | 0.00 | 0.00 | 91 | 1013.2 |
| 20260504211104 | 51 | 0 | 1.7 | 3.5 | 0.00 | 0.00 | 0.00 | 91 | 1013.3 |
| 20260504210024 | 51 | 0 | 0.9 | 2.6 | 0.00 | 0.00 | 0.00 | 91 | 1013.2 |
| 20260504205044 | 52 | 0 | 1.7 | 3.5 | 0.00 | 0.00 | 0.00 | 91 | 1013.3 |
| 20260504204024 | 52 | 0 | 0.9 | 3.5 | 0.00 | 0.00 | 0.00 | 91 | 1013.3 |
| 20260504203024 | 52 | 0 | 1.7 | 2.6 | 0.00 | 0.00 | 0.00 | 90 | 1013.3 |
| 20260504202024 | 52 | 0.0 | 0.9 | 0.00 | 0.00 | 0.00 | 89 | 1013.3 | |
| 20260504201024 | 53 | 0.0 | 0.9 | 0.00 | 0.00 | 0.00 | 88 | 1013.3 | |
| 20260504200024 | 54 | 0.0 | 0.9 | 0.00 | 0.00 | 0.00 | 88 | 1013.1 | |
| 20260504195023 | 54 | 45 | 0.9 | 1.7 | 0.00 | 0.00 | 0.00 | 88 | 1013.1 |
| 20260504194024 | 54 | 0.0 | 1.7 | 0.00 | 0.00 | 0.00 | 87 | 1013.1 | |
| 20260504193024 | 54 | 0.0 | 1.7 | 0.00 | 0.00 | 0.00 | 87 | 1013.2 | |
| 20260504192023 | 55 | 0.0 | 0.9 | 0.00 | 0.00 | 0.00 | 86 | 1013.2 | |
| 20260504191023 | 55 | 0.0 | 0.9 | 0.00 | 0.00 | 0.00 | 85 | 1013.1 | |
| 20260504190023 | 56 | 0.0 | 0.9 | 0.00 | 0.00 | 0.00 | 84 | 1013.1 | |
| 20260504185024 | 57 | 0.0 | 0.9 | 0.00 | 0.00 | 0.00 | 83 | 1013.1 | |
| 20260504184023 | 57 | 0.0 | 1.7 | 0.00 | 0.00 | 0.00 | 82 | 1013.1 | |
| 20260504183023 | 58 | 45 | 0.9 | 3.5 | 0.00 | 0.00 | 0.00 | 82 | 1012.9 |
| 20260504182046 | 59 | 45 | 0.9 | 2.6 | 0.00 | 0.00 | 0.00 | 81 | 1012.8 |
| 20260504181045 | 59 | 45 | 0.9 | 2.6 | 0.00 | 0.00 | 0.00 | 80 | 1012.8 |
| 20260504180025 | 60 | 45 | 2.6 | 5.2 | 0.00 | 0.00 | 0.00 | 80 | 1012.8 |
| 20260504175025 | 60 | 0.0 | 1.7 | 0.00 | 0.00 | 0.00 | 80 | 1012.7 | |
| 20260504174027 | 61 | 45 | 0.9 | 2.6 | 0.00 | 0.00 | 0.00 | 78 | 1012.7 |
| 20260504173027 | 62 | 0.0 | 1.7 | 0.00 | 0.00 | 0.00 | 76 | 1012.7 | |
| 20260504172023 | 63 | 0 | 0.9 | 4.3 | 0.00 | 0.00 | 0.00 | 72 | 1012.6 |
| 20260504171027 | 64 | 338 | 6.1 | 8.7 | 0.00 | 0.00 | 0.00 | 67 | 1012.6 |
| 20260504151027 | 68 | 0 | 6.1 | 10.4 | 0.00 | 0.00 | 0.00 | 63 | 1012.8 |
| 20260504141026 | 67 | 0 | 8.7 | 13.0 | 0.00 | 0.00 | 0.00 | 65 | 1013.2 |